Elko, NV

4:14 PM PST on December 08, 2019 (GMT -0800)
Elko Regional

Weather History for KEKO - November, 2019

Change the Weather History Date:

Saturday, November 16, 2019

  Actual Average Record
Temperature  
Mean Temperature 40 °F 34 °F  
Max Temperature 58 °F 48 °F 74 °F (1894)
Min Temperature 21 °F 21 °F -10 °F (1909)
Degree Days  
Heating Degree Days 25 31  
Month to date heating degree days 376 439  
Since 1 July heating degree days 1335 1268  
Cooling Degree Days 0 0  
Month to date cooling degree days 0 0  
Year to date cooling degree days 503 383  
Moisture  
Dew Point 23 °F    
Average Humidity 57    
Maximum Humidity 81    
Minimum Humidity 33    
Precipitation  
Precipitation 0.00 in 0.04 in 1.33 in (1930)
Month to date precipitation 0.00 0.58  
Year to date precipitation 12.62 8.18  
Snow  
Snow 0.00 in 0.10 in 10.00 in (1930)
Month to date snowfall 0.0 1.7  
Since 1 July snowfall T 2.4  
Since 1 September snowfall T 2.4  
Snow Depth 0.00 in    
Sea Level Pressure  
Sea Level Pressure 30.32 in    
Wind  
Wind Speed 4 mph (SE)    
Max Wind Speed 14 mph    
Max Gust Speed 35 mph    
Visibility 10 miles    
Events      
T = Trace of Precipitation, MM = Missing Value Source: NWS Daily Summary

Daily Weather History Graph

Daily Weather History Graph

Search for Another Location

Airport or City:

Astronomy

Nov. 16, 2019 Rise Set
Actual Time 6:31 AM PST 4:24 PM PST
Civil Twilight 6:01 AM PST 4:53 PM PST
Nautical Twilight 5:28 AM PST 5:26 PM PST
Astronomical Twilight 4:56 AM PST 5:59 PM PST
Moon 8:00 PM PST (11/16) 10:29 AM PST (11/16)
Length of Visible Light 10h 51m
Length of Day
9h 52m
Waning Gibbous, 81% of the Moon is Illuminated
Nov 16
Waning Gibbous
Nov 19
Last Quarter
Nov 26
New
Dec 3
First Quarter
Dec 11
Full

Hourly Weather History & Observations

Time (PST) Temp. Windchill Dew Point Humidity Pressure Visibility Wind Dir Wind Speed Gust Speed Precip Events Conditions
12:56 AM 33.1 °F - 21.0 °F 61% 30.22 in 10.0 mi Calm Calm - N/A   Clear
1:56 AM 30.0 °F 24.1 °F 19.9 °F 66% 30.23 in 10.0 mi ENE 5.8 mph - N/A   Clear
2:56 AM 25.0 °F - 18.0 °F 75% 30.25 in 10.0 mi Calm Calm - N/A   Clear
3:56 AM 26.1 °F - 19.0 °F 75% 30.27 in 10.0 mi Calm Calm - N/A   Clear
4:56 AM 26.1 °F 20.5 °F 18.0 °F 71% 30.29 in 10.0 mi East 4.6 mph - N/A   Clear
5:56 AM 25.0 °F 18.1 °F 18.0 °F 75% 30.32 in 10.0 mi East 5.8 mph - N/A   Clear
6:56 AM 25.0 °F 18.1 °F 17.1 °F 72% 30.35 in 10.0 mi East 5.8 mph - N/A   Clear
7:56 AM 30.0 °F 25.2 °F 19.0 °F 64% 30.38 in 10.0 mi East 4.6 mph - N/A   Clear
8:56 AM 36.0 °F 31.1 °F 21.0 °F 55% 30.37 in 10.0 mi East 5.8 mph - N/A   Clear
9:56 AM 44.1 °F - 23.0 °F 43% 30.36 in 10.0 mi Calm Calm - N/A   Clear
10:56 AM 51.1 °F - 26.1 °F 38% 30.32 in 10.0 mi Variable 4.6 mph - N/A   Clear
11:56 AM 54.0 °F - 30.0 °F 40% 30.30 in 10.0 mi SSW 8.1 mph - N/A   Clear
12:56 PM 57.0 °F - 30.0 °F 36% 30.26 in 10.0 mi West 12.7 mph - N/A   Clear
1:56 PM 57.9 °F - 28.9 °F 33% 30.25 in 10.0 mi WSW 6.9 mph - N/A   Clear
2:56 PM 57.0 °F - 28.9 °F 34% 30.28 in 10.0 mi WSW 8.1 mph - N/A   Clear
3:56 PM 54.0 °F - 28.9 °F 38% 30.29 in 10.0 mi SW 5.8 mph - N/A   Clear
4:56 PM 46.9 °F - 28.0 °F 48% 30.33 in 10.0 mi SSW 4.6 mph - N/A   Clear
5:56 PM 43.0 °F - 26.1 °F 51% 30.37 in 10.0 mi Calm Calm - N/A   Clear
6:56 PM 39.0 °F 36.8 °F 26.1 °F 60% 30.39 in 10.0 mi ESE 3.5 mph - N/A   Clear
7:56 PM 36.0 °F 31.1 °F 25.0 °F 64% 30.39 in 10.0 mi East 5.8 mph - N/A   Clear
8:56 PM 34.0 °F - 24.1 °F 67% 30.40 in 10.0 mi Calm Calm - N/A   Clear
9:56 PM 27.0 °F 23.0 °F 21.0 °F 78% 30.41 in 10.0 mi WSW 3.5 mph - N/A   Clear
10:56 PM 30.9 °F 27.5 °F 21.9 °F 69% 30.38 in 10.0 mi East 3.5 mph - N/A   Clear
11:56 PM 30.0 °F 25.2 °F 21.0 °F 69% 30.38 in 10.0 mi NE 4.6 mph - N/A   Clear